W5CGC Weather Reports


time (UTC)temp
F
wind
direction
speed
knots
gust
knots
rain 1hr
in
rain 24hr
in
rain mn
in
humidity
%
barometer
mb
20260508161535 66 70 0.9 5.2 0.00 0.69 0.69 87 1013.3
20260508160036 65 0 0.0 2.6 0.00 0.69 0.69 88 1013.4
20260508154538 64 0 0.0 1.7 0.00 0.69 0.69 88 1013.5
20260508153036 63 0 0.0 0.9 0.00 0.69 0.69 88 1013.6
20260508151533 63 0 0.0 0.9 0.00 0.69 0.69 88 1013.7
20260508150032 63 0 0.0 0.0 0.00 0.69 0.69 89 1014.1
20260508144537 62 0 0.0 0.9 0.00 0.69 0.69 88 1014.0
20260508143034 62 0 0.0 0.0 0.00 0.69 0.69 88 1014.1
20260508141533 61 0 0.0 0.9 0.00 0.69 0.69 88 1014.2
20260508140032 61 0 0.0 1.7 0.00 0.69 0.69 88 1014.2
20260508134535 61 0 0.0 1.7 0.00 0.69 0.69 88 1014.0
20260508133039 61 0 0.0 2.6 0.00 0.69 0.69 88 1013.9
20260508131539 60 0 0.0 1.7 0.04 0.69 0.69 88 1013.9
20260508130036 60 0 0.0 0.9 0.17 0.69 0.69 88 1014.0
20260508124538 60 0 0.0 0.0 0.20 0.69 0.69 88 1014.3
20260508123038 59 0 0.0 0.9 0.20 0.69 0.69 88 1014.0
20260508121542 59 0 0.0 1.7 0.16 0.65 0.65 88 1014.3
20260508120042 60 0 0.0 0.9 0.02 0.51 0.51 88 1014.5
20260508114541 60 0 0.0 1.7 0.00 0.49 0.49 88 1014.0
20260508113041 59 0 0.0 0.0 0.03 0.49 0.49 88 1014.4
20260508111542 59 0 0.0 0.9 0.10 0.49 0.49 88 1014.1
20260508110033 59 0 0.0 0.0 0.10 0.49 0.49 88 1014.0
20260508104538 59 0 0.0 0.0 0.11 0.49 0.49 88 1013.7
20260508103035 60 0 0.0 0.9 0.17 0.46 0.46 88 1013.9
20260508101536 60 0 0.0 0.9 0.10 0.39 0.39 88 1014.6
20260508100032 60 0 0.0 0.9 0.10 0.39 0.39 87 1013.7
20260508094531 60 0 0.0 0.9 0.09 0.38 0.38 87 1013.6
20260508093033 59 127 0.0 0.9 0.00 0.29 0.29 87 1013.5
20260508091544 59 0 0.0 0.0 0.00 0.29 0.29 87 1013.4
20260508090035 59 0 0.0 0.0 0.00 0.29 0.29 87 1013.8
20260508084532 59 0 0.0 0.0 0.00 0.29 0.29 86 1013.7
20260508083037 59 0 0.0 0.0 0.00 0.29 0.29 86 1014.1
20260508081544 59 0 0.0 0.0 0.21 0.29 0.29 83 1014.5
20260508080034 59 0 0.0 0.9 0.29 0.29 0.29 76 1013.9
20260508074534 60 0 0.0 0.0 0.29 0.29 0.29 72 1014.2
20260508073034 61 0 0.0 0.0 0.29 0.29 0.29 68 1015.4
20260508071536 62 0 0.0 0.0 0.06 0.06 0.06 63 1015.8
20260508070036 62 0 0.0 0.0 0.00 0.00 0.00 62 1014.9
20260508064536 61 0 0.0 0.0 0.00 0.00 0.00 63 1014.6
20260508063039 61 0 0.0 0.0 0.00 0.00 0.00 63 1015.3
20260508061539 61 0 0.0 0.0 0.00 0.00 0.00 64 1015.2
20260508060038 60 0 0.0 0.0 0.00 0.00 0.00 64 1015.4
20260508054541 60 0 0.0 0.0 0.00 0.00 0.00 64 1015.3
20260508053036 60 0 0.0 0.0 0.00 0.00 0.00 64 1015.2
20260508051538 60 0 0.0 0.0 0.00 0.00 0.00 63 1015.3
20260508050039 60 0 0.0 0.0 0.00 0.00 0.00 62 1015.4
20260508044538 60 0 0.0 0.0 0.00 0.00 0.00 62 1015.5
20260508043034 60 0 0.0 0.0 0.00 0.00 0.00 61 1015.3
20260508041539 60 0 0.0 0.0 0.00 0.00 0.00 61 1015.3
20260508040037 60 0 0.0 0.0 0.00 0.00 0.00 60 1015.3
20260508034536 60 0 0.0 0.0 0.00 0.00 0.00 58 1015.3
20260508033039 61 0 0.0 0.0 0.00 0.00 0.00 57 1015.1
20260508031532 61 0 0.0 0.0 0.00 0.00 0.00 56 1015.1
20260508030032 62 0 0.0 0.0 0.00 0.00 0.00 56 1015.1
20260508024535 62 0 0.0 0.0 0.00 0.00 0.00 53 1014.8
20260508023035 63 0 0.0 0.0 0.00 0.00 0.00 51 1014.7
20260508021534 64 0 0.0 1.7 0.00 0.00 0.00 50 1014.7
20260508020037 65 0 0.0 0.0 0.00 0.00 0.00 50 1014.4
20260508014534 65 88 0.0 1.7 0.00 0.00 0.00 48 1014.5
20260508013038 66 0 0.0 0.9 0.00 0.00 0.00 47 1014.4
20260508011535 67 85 0.0 1.7 0.00 0.00 0.00 46 1014.4
20260508010035 67 0 0.0 2.6 0.00 0.00 0.00 45 1014.6
20260508004538 68 94 0.9 3.5 0.00 0.00 0.00 43 1014.3
20260508003033 69 86 0.9 3.5 0.00 0.00 0.00 44 1014.4
20260508001533 70 0 0.0 3.5 0.00 0.00 0.00 42 1014.4
20260508000037 71 0 0.0 2.6 0.00 0.00 0.00 41 1014.7
20260507234545 73 0 0.9 2.6 0.00 0.00 0.00 39 1014.6
20260507233038 73 0 0.0 0.0 0.00 0.00 0.00 40 1014.6
20260507231540 73 0 0.0 0.0 0.00 0.00 0.00 41 1014.5
20260507230037 73 0 0.0 0.0 0.00 0.00 0.00 41 1014.7
20260507224535 73 0 0.0 0.0 0.00 0.00 0.00 42 1014.9
20260507223032 73 0 0.0 0.0 0.00 0.00 0.00 41 1014.9
20260507221538 73 0 0.0 0.0 0.00 0.00 0.00 38 1015.0
20260507220038 73 0 0.0 0.0 0.00 0.00 0.00 33 1015.1
20260507214535 73 0 0.0 0.9 0.00 0.00 0.00 33 1015.2
20260507213043 75 0 0.0 0.9 0.00 0.00 0.00 33 1015.3
20260507211534 75 0 0.0 0.9 0.00 0.00 0.00 31 1015.4
20260507210035 75 0 0.0 1.7 0.00 0.00 0.00 33 1015.6
20260507204537 75 166 0.0 1.7 0.00 0.00 0.00 31 1015.6
20260507203032 75 181 0.0 2.6 0.00 0.00 0.00 32 1015.5
20260507201539 76 0 0.0 1.7 0.00 0.00 0.00 31 1015.9
20260507200034 76 150 0.0 1.7 0.00 0.00 0.00 33 1016.0
20260507194536 74 134 0.0 2.6 0.00 0.00 0.00 34 1016.2
20260507193034 73 0 0.0 2.6 0.00 0.00 0.00 32 1016.5
20260507191534 73 174 0.9 3.5 0.00 0.00 0.00 32 1016.7
20260507190034 73 0 0.9 2.6 0.00 0.00 0.00 35 1017.0
20260507184537 73 154 0.0 4.3 0.00 0.00 0.00 38 1017.1
20260507183042 71 107 0.9 3.5 0.00 0.00 0.00 36 1017.3
20260507181532 71 195 1.7 5.2 0.00 0.00 0.00 35 1017.4
20260507180035 70 144 1.7 4.3 0.00 0.00 0.00 36 1017.8
20260507174532 71 210 0.9 3.5 0.00 0.00 0.00 36 1017.9
20260507173044 69 0 0.0 3.5 0.00 0.00 0.00 39 1018.3
20260507171550 68 154 0.9 4.3 0.00 0.00 0.00 38 1018.7
20260507170038 67 178 0.0 3.5 0.00 0.00 0.00 41 1019.1
20260507164532 67 108 0.9 2.6 0.00 0.00 0.00 42 1019.5
20260507163034 66 177 0.9 3.5 0.00 0.00 0.00 42 1019.3